Simultaneous Nadir Overpasses (SNOs) Predictions

Prediction of SNOs between GOES-17 and FY3D Satellite Orbit:

Table of predicted SNOs for the next 14.0 days since TLE Epoch: 6/24/2023
Index Date Time (GOES-17) GOES-17 Lat,Lon FY3D Lat,Lon Distance(km) Time Diff (sec)
1 06/24/2023 21:20:07 0.01,-104.71 -0.84,-108.48 430.02 80
2 06/25/2023 21:04:25 0.01,-104.71 0.17,-104.03 78.06 80
3 06/28/2023 09:08:24 -0.01,-104.74 0.06,-104.95 24.70 80
4 06/29/2023 08:47:21 -0.01,-104.74 -0.95,-100.50 483.05 80
5 06/30/2023 21:09:51 0.01,-104.72 -0.26,-105.92 136.25 80
6 07/01/2023 20:54:08 0.01,-104.72 0.76,-101.47 371.40 80
7 07/03/2023 09:16:29 -0.00,-104.74 0.47,-106.84 239.77 80
8 07/04/2023 08:55:27 -0.01,-104.73 -0.55,-102.39 267.41 80
9 07/05/2023 21:17:55 0.01,-104.70 -0.70,-107.80 352.92 80
10 07/06/2023 21:02:13 0.01,-104.70 0.32,-103.35 154.71 80
